Weather in Lodeynoye

Russia / Arkhangel'skaya Oblast'     61°15′21″N   41°22′28″E
В апреле 2022 года жителям России запретили посещать сайт meteo.paraplan.net по решению Генеральной прокуратуры. Аудитория сайта уменьшилась в 10 раз. Владельцы сайта не видят смысла в поддержке погодного сервера в таких условиях. Сайт будет закрыт в октябре.
temp.,
°C
wind,
m/s
gust,
m/s
humid.,
%
clouds,
%
prec.,
mm/h
press.,
hPa
HPBL,
m
4 october, tue
tue400:00+9e41398100 0.8 1008572
03:00+11sse4119346 0.9 1009828
06:00+7sse311950 0.0 1012364
09:00+9se311893 0.0 1013469
12:00+12sse410787 0.0 1013856
15:00+13sse5107514 0.0 10141122
18:00+10se412845 0.0 1014584
21:00+9se412935 0.0 1015511
5 october, wed
wed500:00+8ese3996100 0.0 1015345
03:00+8ese3996100 0.0 1014489
06:00+9ese4119498 0.1 1013484
09:00+9ese41093100 0.3 1012596
12:00+8se3796100 0.4 1012459
15:00+8se2595100 1.1 1012332
18:00+8se259697 0.0 1012306
21:00+7se129795 0.1 101254
6 october, thu
thu600:00+8wnw1298100 0.2 101274
03:00+7nw1297100 0.3 1012112
06:00+7wnw1298100 1.4 1012126
09:00+8w1395100 1.4 1012191
12:00+8ssw129284 0.1 1012180
15:00+10ssw357452 0.1 10111040
18:00+7ssw4108716 0.0 1010458
21:00+6s41390100 0.0 1007519
7 october, fri
fri700:00+7ssw51393100 0.9 1004829
03:00+8ssw51495100 1.6 1000923
06:00+7w7188120 1.4 10021275
09:00+8wsw5128671 1.4 1003866
12:00+9wsw4984100 0.1 10041057
15:00+10w5108193 0.4 10041146
18:00+8w5128596 0.1 1006713
21:00+7w51386100 0.1 1008863
8 october, sat
sat800:00+8w61281100 0.0 10111109
03:00+6w311939 0.1 1012476
06:00+7wsw4987100 0.0 1013615
09:00+8wsw4880100 0.0 1013800
12:00+10sw4981100 0.0 1012737
15:00+9sw41087100 0.0 1012825
18:00+8ssw41185100 0.0 1011604
21:00+8ssw51291100 0.0 1009699